THOR ABLESTAR DEB, 1511

Orbit data source: Space-Track

THOR ABLESTAR DEB, 1511 is space debris in LEO originally from a launch on Fri, 13 Aug 1965 UTC launched from the Air Force Western Test Range (AFWTR). Debris objects in space refer to the collection of defunct objects orbiting the Earth. Examples of debris include non-operational satellites, rocket bodies, and fragments generated from explosions, collisions, or faulty payload assembly.

Loading next visibility...
Identifier
1511, 1965-065D
Orbit
LEO
Country
Flag of USUS
Related business
Manufacturer
NRL
Mission
Spacecraft
Bus & Motor
Unknown
Mass
Unknown
Launch date (UTC)
1965-08-13 (61 years ago)
Launch vehicle
Unknown
Launch site
Air Force Western Test Range (AFWTR)
Object type
Payload
Rocket body
Debris
Shape & HBR
Unknown shape, 0.6 m
Radar Cross Section
Medium (>0.1 m² and <1 m²)

Expand to show TLE details & history
Last TLE update: 20 hours ago

TLE from 20 hours ago
0 THOR ABLESTAR DEB
1 01511U 65065D   26207.51444187  .00000061  00000-0  10198-3 0  9990
2 01511  89.9978 211.4877 0070710  96.3614  69.7314 13.34204907965928
Epoch: 2026-07-26T12:20Z
TLE epoch observation values (Epoch: 2026-07-26T12:20:47.777Z)
Latitude
13.10806°
Longitude
-97.92316°
Altitude
1,115.065 km
Speed
7.305 km/s
True Right ascension
02h 05m 56s
True Declination
13° 02' 09"
Sunlit
Object was in daylight at epoch
Visualization orbit readout
Latitude
Unknown
Longitude
Unknown
Altitude
Unknown
Speed
Unknown
Apparent Right ascension
Unknown
Apparent Declination
Unknown
Sunlit
N/A
Visualization observer readout
Local Sidereal Time
21:10:29
Azimuth
Unknown
Elevation
Unknown
Doppler factor
Unknown
Orbital elements
Apogee altitude
1,181.093 km
Perigee altitude
1,074.941 km
Semi-major axis
7,506.154 km
Eccentricity
0.00707
Inclination
89.9978°
RAAN
211.4877°
Arg. of periapsis
96.3614°
True anomaly
70.49382°
Mean anomaly
69.7314°
Eccentric anomaly
70.11238°
Mean motion
3.33747 °/min
Orbital period
107.87 mins
BSTAR
0.00010198
Loading maneuver chart data...
Computing Atmospheric mass density...

Documentation

Showing up to 5 results
|